Location: Gwatt
(46.7204°N, 7.6223°E)
Time: 11:43:02
(UTC+00:00)

Meteor 1-15 Rocket - Pass Details

Date: 18 September 2020
Orbit: 840 x 907 km, 81.2° (Epoch: 24 October)

Event Time Altitude Azimuth Distance (km) Brightness Sun altitude
Rises 19:50:30 0° 193° (SSW) 3,392 7.2 -23.1°
Reaches altitude 10° 19:52:53 10° 195° (SSW) 2,467 6.5 -23.4°
Maximum altitude 19:58:29 78° 281° (W) 881 4.3 -24.3°
Drops below altitude 10° 20:04:14 10° 9° (N) 2,525 6.9 -25.1°
Sets 20:06:42 0° 11° (N) 3,477 7.7 -25.5°
